Location: Antioch Baptist Church
(32.6696°N, 85.7327°W)
Time: 11:47:51
(UTC+00:00)

ARIANE 5 R/B - Pass Details

Date: 14 July 2020
Orbit: 749 x 794 km, 98.6° (Epoch: 08 August)

Event Time Altitude Azimuth Distance (km) Brightness Sun altitude
Rises 07:56:18 0° 21° (NNE) 3,240 6.9 -27.8°
Reaches altitude 10° 07:58:43 10° 28° (NNE) 2,317 6.0 -27.5°
Maximum altitude 08:03:33 42° 99° (E) 1,091 3.4 -26.9°
Enters shadow 08:04:30 39° 128° (SE) 1,163 3.3 -26.8°
